Regional Weather Roundup
Issued by NWS Newport/Morehead, NC

Home | Current Version | Previous Version | Text Only | Print | Product List | Glossary On
Versions: 1 2 3 4 5 6 7 8 9 10 11 12 13 14 15 16 17 18 19 20 21 22 23 24 25 26 27 28 29 30 31 32 33 34 35 36 37 38 39 40 41 42 43 44 45 46 47 48 49 50
000
ASUS42 KMHX 230710
RWRMHX
WEATHER ROUNDUP FOR EASTERN NORTH CAROLINA
NATIONAL WEATHER SERVICE NEWPORT/MOREHEAD CITY NC
300 AM EDT TUE SEP 23 2014

NOTE: "FAIR" INDICATES FEW OR NO CLOUDS BELOW 12,000 FEET
WITH NO SIGNIFICANT WEATHER AND/OR OBSTRUCTIONS TO VISIBILITY

NCZ015>017-031-032-045>047-102-103-230800-
NORTH COAST

CITY           SKY/WX    TMP DP  RH WIND       PRES   REMARKS
EDENTON        CLOUDY    62  57  84 N5        30.17S
ELIZABETH CITY CLOUDY    65  57  75 N9        30.18R
KITTY HAWK     CLOUDY    69  55  60 NE9       30.15R
MANTEO         MOCLDY    68  56  65 NE12      30.16R

$$

NCZ045>047-081-094-103-104-230800-
CENTRAL COAST

CITY           SKY/WX    TMP DP  RH WIND       PRES   REMARKS
FRISCO         CLOUDY    68  60  75 NE10G18   30.13S
SWANQUARTER      N/A     66 N/A N/A NE3       30.09S

$$

NCZ095-097-098-100-101-230800-
SOUTHERN COAST

CITY           SKY/WX    TMP DP  RH WIND       PRES   REMARKS
BEAUFORT       CLOUDY    71  62  73 NE7       30.11F
CEDAR ISLAND     N/A     72 N/A N/A N17G24    30.18S
JACKSONVILLE   CLOUDY    68  63  84 NE9       30.11F
NEWPORT        NOT AVBL
PINEY ISLAND   CLOUDY    74  61  63 NE16G22   30.12F
WILMINGTON     CLOUDY    66  62  87 NE9       30.09F


$$

NCZ011>013-027>030-043-044-078>080-089-090>093-098-230800-
COASTAL PLAIN

CITY           SKY/WX    TMP DP  RH WIND       PRES   REMARKS
AHOSKIE        CLOUDY    60  53  77 N8        30.19S
CLINTON        CLOUDY    67  60  78 CALM      30.13F
ELIZABETHTOWN  CLOUDY    65  59  81 CALM      30.12F
GOLDSBORO      CLOUDY    65  63  91 CALM      30.13F
GREENVILLE     CLOUDY    64  59  82 NE6       30.17S
HAVELOCK       CLOUDY    70  61  73 NE12      30.13F
KENANSVILLE    CLOUDY    64  57  77 CALM      30.14F
KINSTON        CLOUDY    65  59  81 NE3       30.16R
NEW BERN       CLOUDY    69  61  75 NE8       30.15S
RICHLANDS      CLOUDY    64  57  77 N6        30.13S
ROANOKE RAPIDS NOT AVBL
ROCKY MOUNT    CLOUDY    65  57  75 NE7       30.17R
WASHINGTON     CLOUDY    63  59  88 NE5       30.16S
WHITEVILLE     CLOUDY    64  60  85 CALM      30.11F

$$

AMZ130-135-150-152-154-156-158-170-250-252-270-ANZ085-086-088-633-658-670-230800-
MARINE OBSERVATIONS

STATION/POSITION TIME  TEMP    WIND        PRES    WAVE   SWELL
                       AIR SEA DIR/SP/G            HT/PER HT/PER
                 (UTC) (F)     (DEG/KT/KT) (MB)    (FT/S) (FT/S)
CHESAPEAKE LIGHT 0600   67      20/ 23/ 25 1021.9
BUOY 44014       0700   70 76   20/ 17/ 21 1020.5    4/ 8   2/ 8
DUCK             0700   70 74   30/ 17/ 22 1020.6
2E DUCK          0700                        N/A     4/ 5
OREGON INLET     0700   70 75   30/ 14/ 17 1020.6
BUOY 44095       0700      74                N/A     4/ 7
20E OREGON INLET NOT AVBL
HATTERAS CG      NOT AVBL
DIAMOND BUOY     0700   73      20/ 19/ 23 1019.5    4/ 6   2/ 8
CAPE LOOKOUT     0600   74      40/ 16/ 17 1019.6
BEAUFORT LAB     0700   70 76   40/  6/  9 1019.1
30 SE NEW RIVER  0700   76 82   50/ 17/ 21 1018.1    4/ 7   2/ 7
5 SE WRIGHTSVILL 0600   73 79   70/ 12/ 14   N/A
BUOY 41002       0641   79 81   90/  4/  6 1017.9    3/ 7   3/ 7
BUOY 41004       0700   78 82   30/ 16/ 17 1016.2    3/ 7   2/ 7

$$


USA.gov is the U.S. government's official web portal to all federal, state and local government web resources and services.